Probability
0 0 0 0 0 0 0 0 0 0 0 0 0 0 0 0 0 0 0 0 0 0 0 0 0 0 0 0 0 0 0 0 0 0 1 0 0 0 0 0 0 0 0
0 0 0 0 0 0 0 0 0 0 0 0 0 0 0 0 0 0 0 0 0 0 0 0 0 0 0 0 0 0 0 0 0 0 1 0 0 0 0 0 0 0 0
0 0 0 0 0 0 0 0 0 0 0 0 0 0 0 0 0 0 0 0 0 0 0 0 0 0 0 0 0 0 0 0 0 0 0 0 0 0 0 0 0 0 0
0 0 0 0 0 0 0 0 0 0 0 0 0 0 0 0 0 0 0 0 0 0 0 0 0 0 0 0 0 0 0 0 0 0 0 0 0 0 0 0 0 0 0
0 0 0 0 0 0 0 0 0 0 0 0 0 0 0 0 0 0 0 0 0 0 0 0 0 0 0 0 0 0 0 0 0 0 0 0 0 0 0 0 0 0 0
0 0 0 0 0 0 0 0 0 0 0 0 0 0 0 0 0 0 0 0 0 0 0 0 0 0 0 0 0 0 0 0 0 0 0 0 0 0 0 0 0 0 0
0 0 0 0 0 0 0 0 0 0 0 0 0 0 0 0 0 0 0 0 0 0 0 0 0 0 0 0 0 0 0 0 0 0 0 0 0 0 0 0 0 0 0
0 0 0 0 0 0 0 0 0 0 0 0 0 0 0 0 0 0 0 0 0 0 0 0 0 0 0 0 0 0 0 0 0 0 0 0 0 0 0 0 0 0 0
0 0 0 0 0 0 0 0 0 0 0 0 0 0 0 0 0 0 0 0 0 0 0 0 0 0 0 0 0 0 0 0 0 0 0 0 0 0 0 0 0 0 0
0 0 0 0 0 0 0 0 0 0 0 0 0 0 0 0 0 0 0 0 0 0 0 0 0 0 0 0 0 0 0 0 0 0 0 0 0 0 0 0 0 0 0
0 0 0 0 0 0 0 0 0 0 0 0 0 0 0 0 0 0 0 0 0 0 0 0 0 0 0 0 0 0 0 0 0 0 0 0 0 0 0 0 0 0 0
0 0 0 0 0 0 0 0 0 0 0 0 0 0 0 0 0 0 0 0 0 0 0 0 0 0 0 0 0 0 0 0 0 0 0 0 0 0 0 0 0 0 0
0 0 0 0 0 0 0 0 0 0 0 0 0 0 0 0 0 0 0 0 0 0 0 0 0 0 0 0 0 0 0 0 0 0 0 0 0 0 0 0 0 0 0
0 0 0 0 0 0 0 0 0 0 0 0 0 0 0 0 0 0 0 0 0 0 0 0 0 0 0 0 0 0 0 0 0 0 0 0 0 0 0 0 0 0 0
0 0 0 0 0 0 0 0 0 0 0 0 0 0 0 0 0 0 0 0 0 0 0 0 0 0 0 0 0 0 0 0 0 0 0 0 0 0 0 0 0 0 0
0 0 0 0 0 0 0 0 0 0 0 0 0 0 0 0 0 0 0 0 0 0 0 0 0 0 0 0 0 0 0 0 0 0 0 0 0 1 1 0 0 0 0
0 0 0 1 1 1 0 0 0 0 0 0 0 0 0 0 0 0 0 0 0 0 0 0 0 0 0 0 0 0 0 0 0 0 0 0 0 0 1 2 2 1 0
0 0 1 2 3 3 2 0 0 0 0 0 0 0 0 0 0 0 0 0 0 0 0 0 0 0 0 0 0 0 0 0 0 0 0 0 0 0 1 3 4 3 2
0 0 1 3 5 6 5 2 1 0 0 0 0 0 0 0 0 0 0 0 0 0 0 0 0 0 0 0 0 0 0 0 0 0 0 0 0 0 0 1 3 4 4
1 0 1 5 11 16 17 13 8 3 1 1 1 0 0 0 0 0 0 0 0 0 0 0 0 0 0 0 1 1 1 0 0 0 0 0 0 0 0 0 1 2 3
4 3 3 10 22 36 42 39 29 18 10 7 4 2 0 0 0 0 0 0 0 0 0 0 0 0 0 1 2 2 1 0 0 0 0 0 0 0 0 0 0 0 1
14 11 9 16 34 56 69 68 60 48 37 26 16 8 3 0 0 0 0 0 0 0 0 0 1 1 1 1 2 3 2 1 1 0 0 0 0 0 0 0 0 0 0
29 24 20 25 45 69 84 86 82 77 69 55 39 23 9 2 2 2 1 2 1 1 1 1 1 2 2 1 1 2 2 2 2 1 0 0 0 0 0 0 0 0 0
46 42 38 44 61 78 87 87 84 80 76 69 58 38 16 5 3 3 2 2 3 3 3 2 1 3 4 3 2 1 1 2 3 2 1 0 0 0 0 0 0 0 0
55 56 58 65 76 83 83 76 66 60 58 60 56 42 23 10 5 3 2 1 2 3 3 2 1 2 5 5 3 1 0 1 2 2 1 1 0 0 0 0 0 0 0
56 62 69 76 83 84 76 64 51 43 44 49 49 40 26 14 6 3 1 0 1 2 1 1 1 2 4 5 3 1 1 1 1 1 1 1 0 0 0 0 0 0 0
Wind_Speed
11 13 15 14 14 14 13 13 12 12 11 11 10 10 9 9 8 8 7 7 7 7 7 7 7 7 7 6 6 6 6 6 6 6 5 4 3 3 3 3 2 3 5
14 14 16 14 14 14 13 13 12 12 11 11 10 10 9 9 8 8 7 7 7 7 7 7 7 7 7 7 7 7 7 7 6 5 4 4 5 4 5 4 4 5 5
15 15 16 14 14 14 13 13 12 12 11 11 11 10 9 9 8 8 7 7 7 7 7 7 7 7 7 7 7 7 7 7 6 4 3 3 6 5 5 5 6 6 6
15 14 14 15 13 13 13 13 12 12 11 11 11 10 9 8 8 7 7 7 7 7 7 6 6 7 7 6 6 6 6 5 5 4 3 4 4 7 5 5 6 7 7
14 13 14 14 13 13 13 12 12 12 12 11 11 10 9 8 7 7 7 7 7 7 7 7 7 7 7 6 5 5 4 4 4 4 2 3 4 6 5 5 6 7 7
13 13 14 13 13 12 12 12 12 12 12 11 11 10 9 8 7 7 7 7 8 8 8 8 7 7 7 6 5 6 6 4 4 1 1 2 4 5 4 4 4 6 6
14 12 14 13 13 12 12 12 12 12 12 12 11 10 9 8 7 7 7 7 8 8 8 8 8 8 7 6 6 7 6 2 1 2 2 2 4 3 3 3 4 5 5
13 12 13 14 12 12 12 12 12 12 12 12 11 10 9 8 7 6 7 7 7 7 8 7 7 7 7 6 7 7 5 3 4 3 2 2 4 1 2 2 3 4 5
12 12 11 14 13 13 12 12 12 13 12 12 11 11 9 8 7 6 6 6 6 6 6 6 6 6 5 5 6 7 6 3 2 3 3 4 3 1 1 1 2 4 4
12 12 11 11 12 13 13 13 12 12 12 12 11 11 10 8 7 6 7 6 6 6 6 6 5 5 5 5 5 6 4 4 3 3 3 6 4 2 1 2 2 3 4
11 11 11 11 10 10 11 12 12 12 11 11 11 11 10 9 9 8 6 6 5 6 6 5 5 4 4 5 5 4 5 1 3 2 4 7 4 3 3 2 2 2 3
13 12 10 10 10 10 8 9 9 9 10 10 9 11 9 6 4 4 10 5 5 6 6 5 4 6 7 6 7 7 2 2 0 2 5 5 3 2 2 2 2 2 2
12 12 11 11 10 9 7 7 6 5 7 8 9 10 7 6 5 5 6 8 7 8 7 7 8 4 4 3 2 2 2 1 1 1 5 4 3 1 1 1 1 1 2
12 12 12 11 11 10 9 7 7 6 6 6 8 10 7 5 5 5 4 5 5 4 3 4 2 4 4 5 3 2 2 1 1 1 5 5 3 2 1 1 2 2 2
12 12 12 12 12 11 9 6 7 7 7 7 7 8 8 6 6 6 5 4 5 5 5 4 4 4 3 2 2 1 2 2 1 1 3 5 4 3 1 1 1 2 3
13 13 12 13 12 11 9 8 7 7 6 7 7 8 9 7 6 6 6 6 5 5 4 4 4 3 3 2 2 2 2 3 2 2 1 4 4 3 3 1 0 1 1
12 13 13 12 13 13 11 10 7 7 8 7 7 9 10 8 7 7 6 6 6 6 6 4 4 3 3 3 3 2 2 2 2 2 2 1 4 5 4 3 2 2 2
11 12 12 11 13 13 11 10 7 8 8 7 7 7 10 10 9 6 5 6 6 5 5 4 4 4 4 4 4 3 2 2 0 2 1 2 2 3 6 6 4 4 3
11 12 13 14 14 13 12 10 8 8 8 7 7 7 9 10 9 7 5 5 7 6 5 5 4 4 4 4 3 3 3 2 1 2 1 1 3 2 4 6 6 5 4
12 14 14 14 14 13 11 10 8 8 7 7 7 7 9 8 9 7 5 7 7 6 5 5 5 4 3 4 4 4 4 3 3 3 1 1 2 2 1 2 4 6 5
13 15 15 15 15 12 10 10 9 9 7 7 7 8 9 9 9 7 5 6 6 6 7 7 6 6 5 5 5 5 5 7 6 4 4 4 3 2 3 3 1 1 4
12 14 16 16 15 14 10 10 8 8 7 6 6 7 9 10 9 8 8 6 7 6 8 8 7 5 5 6 6 5 5 6 6 7 5 5 5 4 4 3 4 3 2
10 12 12 15 15 14 11 7 6 6 4 4 5 5 8 9 9 9 9 7 8 8 8 9 9 9 7 7 7 6 5 5 4 6 8 7 6 4 5 5 5 4 3
9 8 10 11 13 12 11 9 9 5 4 3 2 3 5 7 7 8 8 8 8 7 8 8 10 9 9 8 7 7 7 4 4 3 5 7 8 7 7 5 6 5 5
9 5 4 6 9 11 11 11 9 5 4 2 1 1 3 4 6 7 7 7 7 6 8 8 8 9 8 9 8 7 8 5 8 5 4 4 5 7 8 7 6 6 5
7 5 3 6 9 10 11 11 11 9 6 3 0 1 2 3 4 6 6 6 6 6 6 7 7 9 9 9 9 8 8 7 8 7 7 5 5 5 7 7 7 6 6
Wind_Direction
156 150 143 148 147 146 142 137 134 132 131 131 130 130 129 127 123 121 120 119 117 114 110 105 104 106 112 121 130 137 132 122 110 103 100 93 90 95 94 76 263 130 99
149 147 146 150 149 149 147 144 141 140 138 137 134 131 127 123 120 117 115 114 112 110 107 104 103 103 106 108 114 120 118 114 108 103 106 120 102 94 91 72 16 67 95
147 146 150 152 151 152 152 150 148 146 145 142 138 132 128 125 121 117 113 109 106 105 104 101 103 103 101 103 108 112 114 115 115 117 186 132 109 102 94 89 80 85 92
149 150 150 149 152 153 155 155 154 152 149 146 141 136 132 128 124 120 114 108 104 102 100 100 100 98 97 97 102 108 112 120 129 183 194 102 102 100 99 95 94 91 93
151 151 142 152 152 153 156 158 157 155 153 149 145 140 136 133 129 124 116 108 102 96 93 94 95 93 90 86 91 100 108 121 152 231 84 90 91 101 102 101 100 99 99
155 153 146 157 155 155 157 159 159 158 157 154 150 146 142 137 134 129 121 111 102 94 87 85 87 86 78 73 79 91 92 103 202 155 134 138 108 106 112 116 116 109 105
160 158 152 160 160 160 160 161 162 163 161 159 156 152 148 143 138 135 127 116 107 99 90 82 80 76 68 66 83 95 90 92 129 114 152 129 90 110 139 143 132 119 116
164 163 156 161 166 166 166 165 166 166 165 164 161 157 152 147 141 138 131 123 114 103 94 86 80 74 65 65 88 95 79 332 101 92 97 96 80 138 151 144 138 135 134
167 169 167 166 171 173 172 171 171 169 170 169 166 162 157 151 147 144 138 132 124 115 107 98 89 80 72 70 85 94 89 12 32 65 77 78 75 83 124 130 151 155 154
175 176 178 177 174 174 175 176 176 174 174 174 172 167 160 157 157 153 165 139 136 129 119 111 105 98 90 84 94 106 137 221 51 75 62 72 53 54 89 113 145 160 163
183 184 184 182 180 179 176 169 179 179 178 178 177 171 176 182 169 174 135 132 147 137 128 123 117 121 142 127 112 136 209 91 78 47 62 53 43 58 78 96 126 156 161
186 189 188 191 183 183 180 169 185 181 180 190 184 177 192 179 164 155 120 156 153 143 142 130 139 177 216 163 148 196 180 141 147 75 76 43 27 53 77 83 98 133 157
187 188 193 194 191 187 183 180 182 181 183 192 186 179 191 174 167 177 164 168 170 180 171 155 194 180 174 132 164 163 83 298 347 62 87 44 355 356 102 118 120 141 165
190 191 194 197 192 194 191 186 188 186 185 186 191 185 182 186 188 174 188 173 173 181 172 193 186 157 162 164 159 124 123 299 341 356 83 50 354 317 254 185 183 191 195
192 195 196 198 200 196 195 194 196 193 189 188 190 193 187 187 191 176 186 179 193 178 179 193 203 161 171 135 89 54 56 43 20 43 96 78 25 360 320 226 213 217 213
197 197 193 198 200 200 194 198 202 196 190 197 188 201 193 189 193 183 190 183 189 188 188 200 197 187 198 175 147 79 36 45 52 83 77 124 100 52 32 8 196 173 186
206 202 195 198 198 200 202 201 199 200 193 195 193 204 196 191 193 192 192 186 186 190 194 202 187 210 201 187 179 158 97 41 23 69 76 67 127 109 76 63 80 101 111
218 213 199 197 201 199 200 201 199 201 198 197 194 205 204 197 198 192 193 193 193 192 198 191 209 201 192 201 192 180 169 135 109 52 129 132 110 116 105 74 68 76 89
231 221 210 203 203 199 196 199 202 200 198 202 199 200 210 208 203 194 199 198 191 198 205 204 207 214 201 199 201 203 212 194 168 229 182 98 112 139 120 110 96 69 63
240 229 219 207 206 199 195 197 192 201 199 203 204 204 213 216 215 208 200 211 201 201 208 215 202 214 220 206 214 211 220 223 222 230 247 228 215 147 113 136 162 119 87
249 234 223 212 204 198 192 194 189 193 196 200 207 210 212 219 219 220 219 214 208 211 212 215 209 206 214 214 218 220 219 228 234 212 229 232 212 179 214 178 210 201 145
256 243 230 216 206 197 192 192 191 186 193 194 202 211 218 223 223 226 224 221 216 218 218 217 214 214 210 211 223 231 232 214 218 224 219 233 234 194 227 209 191 191 215
273 252 238 223 206 194 181 174 163 156 155 170 199 212 221 227 227 227 229 225 222 219 218 216 215 218 217 217 230 230 238 238 207 201 216 220 228 223 222 218 215 193 185
310 272 245 222 204 182 167 163 160 161 155 169 180 204 217 224 228 227 229 226 224 222 222 220 220 223 221 218 218 231 245 261 243 209 204 223 224 223 226 211 223 214 197
335 317 250 201 173 159 157 152 135 116 98 66 53 224 225 222 226 227 228 227 227 225 226 225 223 223 223 224 219 214 221 232 248 251 234 212 217 225 225 221 212 216 208
3 17 72 122 128 137 138 134 127 121 110 100 52 244 229 218 220 223 224 223 225 226 227 227 227 225 232 233 230 226 220 220 223 229 234 235 238 229 218 217 222 214 211